Terminal Aerodrome Forecast
Issued by NWS

Home | Current Version | Previous Version | Text Only | Print | Product List | Glossary On
Versions: 1 2 3 4 5 6 7 8 9 10 11 12 13 14 15 16 17 18 19 20 21 22 23 24 25 26
000
FTUS43 KPAH 181726
TAFOWB
TAF
KOWB 181726Z 1818/1918 20022G30KT P6SM VCSH BKN018
     FM182000 22018G30KT 5SM -SHRA VCTS BKN015CB
     FM182100 24020G35KT 2SM TSRA BKN010CB OVC025
     FM182200 31021G35KT P6SM BKN025
     FM190400 30017G27KT P6SM SCT035
     FM190800 30012G22KT P6SM FEW150=

USA.gov is the U.S. government's official web portal to all federal, state and local government web resources and services.